• In Uzbekistan
  • List of Countries
  • For 7 days
  • Water Temperature
  • Weather Map
  • Weather Widgets
  • user-avatar
    Login

    Hourly Weather Korçe

    Today, 25 February, Tuesday

    Time Temperature Precipitation Wind Pressure Humidity
    00:00 +6°C° 0 mm 2 mps 667 mmHg 65%
    01:00 +6°C° 0 mm 2 mps 667 mmHg 65%
    02:00 +5°C° 0 mm 2 mps 667 mmHg 64%
    03:00 +5°C° 0 mm 2 mps 666 mmHg 64%
    04:00 +5°C° 0 mm 2 mps 666 mmHg 63%
    05:00 +5°C° 0 mm 2 mps 666 mmHg 63%
    06:00 +6°C° 0 mm 2 mps 666 mmHg 62%
    07:00 +6°C° 0 mm 2 mps 666 mmHg 62%
    08:00 +8°C° 0 mm 2 mps 667 mmHg 59%
    09:00 +10°C° 0 mm 2 mps 667 mmHg 57%
    10:00 +13°C° 0 mm 2 mps 668 mmHg 54%
    11:00 +12°C° 0 mm 3 mps 668 mmHg 53%
    12:00 +13°C° 0 mm 3 mps 667 mmHg 52%
    13:00 +14°C° 0 mm 3 mps 667 mmHg 51%
    14:00 +13°C° 0 mm 3 mps 667 mmHg 55%
    15:00 +12°C° 0 mm 3 mps 666 mmHg 59%
    16:00 +12°C° 0 mm 3 mps 666 mmHg 63%
    17:00 +10°C° 0 mm 3 mps 665 mmHg 72%
    18:00 +8°C° 0 mm 3 mps 665 mmHg 80%
    19:00 +5°C° 0 mm 3 mps 664 mmHg 88%
    20:00 +5°C° 0 mm 3 mps 664 mmHg 90%
    21:00 +4°C° 0 mm 3 mps 663 mmHg 92%
    22:00 +5°C° 0 mm 2 mps 663 mmHg 93%
    23:00 +3°C° 0 mm 3 mps 663 mmHg 93%

    Tomorrow, 26 February, Wednesday

    Time Temperature Precipitation Wind Pressure Humidity
    00:00 +3°C° 0 mm 3 mps 662 mmHg 94%
    01:00 +3°C° 0 mm 3 mps 662 mmHg 94%
    02:00 +3°C° 0 mm 3 mps 662 mmHg 94%
    03:00 +3°C° 0 mm 3 mps 661 mmHg 94%
    04:00 +2°C° 0 mm 3 mps 660 mmHg 95%
    05:00 +3°C° 0 mm 3 mps 660 mmHg 94%
    06:00 +3°C° 0 mm 3 mps 660 mmHg 94%
    07:00 +3°C° 0 mm 4 mps 660 mmHg 93%
    08:00 +4°C° 0 mm 4 mps 660 mmHg 87%
    09:00 +6°C° 0 mm 4 mps 660 mmHg 81%
    10:00 +7°C° 0 mm 4 mps 660 mmHg 75%
    11:00 +8°C° 0 mm 5 mps 660 mmHg 72%
    12:00 +8°C° 0 mm 5 mps 660 mmHg 69%
    13:00 +9°C° 0 mm 5 mps 660 mmHg 66%
    14:00 +8°C° 0.1 mm 5 mps 659 mmHg 69%
    15:00 +7°C° 0.1 mm 5 mps 658 mmHg 72%
    16:00 +7°C° 0.1 mm 5 mps 658 mmHg 75%
    17:00 +6°C° 0.1 mm 4 mps 658 mmHg 81%
    18:00 +5°C° 0.1 mm 4 mps 658 mmHg 87%
    19:00 +4°C° 0.1 mm 3 mps 658 mmHg 93%
    20:00 +4°C° 0.2 mm 3 mps 658 mmHg 93%
    21:00 +3°C° 0.2 mm 3 mps 658 mmHg 94%
    22:00 +3°C° 0.2 mm 3 mps 658 mmHg 94%
    23:00 +3°C° 0.5 mm 3 mps 658 mmHg 95%

    Day after tomorrow, 27 February, Thursday

    Time Temperature Precipitation Wind Pressure Humidity
    00:00 +2°C° 0.5 mm 3 mps 657 mmHg 95%
    01:00 +2°C° 0.5 mm 3 mps 657 mmHg 96%
    02:00 +2°C° 2 mm 3 mps 657 mmHg 96%
    03:00 +1°C° 2 mm 3 mps 656 mmHg 96%
    04:00 0°C° 2 mm 4 mps 656 mmHg 96%
    05:00 0°C° 2.2 mm 4 mps 656 mmHg 93%
    06:00 -1°C° 2.2 mm 4 mps 656 mmHg 90%
    07:00 -2°C° 2.2 mm 4 mps 656 mmHg 87%
    08:00 -1°C° 0.1 mm 4 mps 657 mmHg 81%
    09:00 -1°C° 0.1 mm 4 mps 657 mmHg 75%
    10:00 0°C° 0.1 mm 4 mps 658 mmHg 70%
    11:00 -1°C° 0.7 mm 4 mps 658 mmHg 78%
    12:00 -1°C° 0.7 mm 4 mps 658 mmHg 86%
    13:00 -1°C° 0.7 mm 4 mps 658 mmHg 94%
    14:00 -1°C° 0.9 mm 4 mps 659 mmHg 93%
    15:00 -1°C° 0.9 mm 4 mps 659 mmHg 92%
    16:00 0°C° 0.9 mm 3 mps 660 mmHg 91%
    17:00 -1°C° 0.2 mm 3 mps 661 mmHg 91%
    18:00 -2°C° 0.2 mm 2 mps 661 mmHg 90%
    19:00 -2°C° 0.2 mm 2 mps 662 mmHg 90%
    20:00 -3°C° 0 mm 2 mps 662 mmHg 90%
    21:00 -1°C° 0 mm 1 mps 662 mmHg 90%
    22:00 -2°C° 0 mm 1 mps 663 mmHg 90%
    23:00 -2°C° 0 mm 1 mps 663 mmHg 89%

    28 February, Friday

    Time Temperature Precipitation Wind Pressure Humidity
    00:00 -2°C° 0 mm 1 mps 663 mmHg 89%
    01:00 -2°C° 0 mm 1 mps 663 mmHg 88%
    02:00 -2°C° 0 mm 1 mps 663 mmHg 88%
    03:00 -4°C° 0 mm 2 mps 662 mmHg 88%
    04:00 -4°C° 0 mm 2 mps 662 mmHg 88%
    05:00 -3°C° 0 mm 2 mps 662 mmHg 88%
    06:00 -3°C° 0 mm 2 mps 662 mmHg 89%
    07:00 -3°C° 0 mm 2 mps 662 mmHg 89%
    08:00 -2°C° 0.3 mm 2 mps 662 mmHg 91%
    09:00 -1°C° 0.3 mm 3 mps 662 mmHg 93%
    10:00 0°C° 0.3 mm 3 mps 662 mmHg 96%
    11:00 0°C° 1.5 mm 3 mps 662 mmHg 96%
    12:00 0°C° 1.5 mm 3 mps 661 mmHg 97%
    13:00 0°C° 1.5 mm 3 mps 661 mmHg 97%
    14:00 0°C° 1.1 mm 3 mps 661 mmHg 97%
    15:00 +1°C° 1.1 mm 2 mps 661 mmHg 97%
    16:00 +1°C° 1.1 mm 2 mps 661 mmHg 97%
    17:00 +1°C° 0.3 mm 2 mps 662 mmHg 97%
    18:00 +1°C° 0.3 mm 2 mps 662 mmHg 97%
    19:00 +2°C° 0.3 mm 1 mps 663 mmHg 98%
    20:00 +2°C° 0 mm 1 mps 663 mmHg 97%
    21:00 +2°C° 0 mm 1 mps 664 mmHg 96%
    22:00 +2°C° 0 mm 1 mps 664 mmHg 96%
    23:00 +1°C° 0 mm 1 mps 664 mmHg 94%

    29 February, Saturday

    Time Temperature Precipitation Wind Pressure Humidity
    00:00 0°C° 0 mm 1 mps 664 mmHg 93%
    01:00 0°C° 0 mm 1 mps 664 mmHg 92%
    02:00 -1°C° 0 mm 1 mps 664 mmHg 90%
    03:00 -1°C° 0 mm 1 mps 664 mmHg 89%
    04:00 -1°C° 0 mm 1 mps 664 mmHg 87%
    05:00 -1°C° 0 mm 1 mps 664 mmHg 84%
    06:00 -1°C° 0 mm 1 mps 665 mmHg 82%
    07:00 -1°C° 0 mm 1 mps 665 mmHg 79%
    08:00 +1°C° 0 mm 1 mps 666 mmHg 75%
    09:00 +3°C° 0 mm 1 mps 666 mmHg 71%
    10:00 +5°C° 0 mm 1 mps 667 mmHg 66%
    11:00 +6°C° 0 mm 1 mps 667 mmHg 64%
    12:00 +7°C° 0 mm 1 mps 667 mmHg 62%
    13:00 +8°C° 0 mm 1 mps 667 mmHg 60%
    14:00 +7°C° 0 mm 1 mps 667 mmHg 63%
    15:00 +7°C° 0 mm 1 mps 666 mmHg 66%
    16:00 +6°C° 0 mm 2 mps 666 mmHg 69%
    17:00 +5°C° 0 mm 1 mps 666 mmHg 73%
    18:00 +4°C° 0 mm 1 mps 665 mmHg 76%
    19:00 +3°C° 0 mm 1 mps 665 mmHg 80%
    20:00 +1°C° 0 mm 2 mps 665 mmHg 81%
    21:00 +1°C° 0 mm 2 mps 665 mmHg 83%
    22:00 +1°C° 0 mm 2 mps 665 mmHg 84%
    23:00 +2°C° 0 mm 2 mps 665 mmHg 85%

    1 March, Sunday

    Time Temperature Precipitation Wind Pressure Humidity
    00:00 +2°C° 0 mm 2 mps 665 mmHg 86%
    01:00 +2°C° 0 mm 2 mps 665 mmHg 87%
    02:00 +2°C° 0 mm 2 mps 664 mmHg 88%
    03:00 +1°C° 0 mm 2 mps 664 mmHg 90%
    04:00 +1°C° 0 mm 2 mps 664 mmHg 91%
    05:00 +2°C° 0 mm 2 mps 664 mmHg 92%
    06:00 +2°C° 0 mm 2 mps 664 mmHg 93%
    07:00 +2°C° 0 mm 2 mps 664 mmHg 93%
    08:00 +4°C° 0 mm 2 mps 664 mmHg 91%
    09:00 +4°C° 0 mm 3 mps 664 mmHg 89%
    10:00 +5°C° 0 mm 3 mps 665 mmHg 88%
    11:00 +5°C° 0 mm 3 mps 664 mmHg 87%
    12:00 +7°C° 0 mm 3 mps 664 mmHg 87%
    13:00 +7°C° 0 mm 3 mps 664 mmHg 86%
    14:00 +7°C° 0.1 mm 3 mps 663 mmHg 86%
    15:00 +7°C° 0.1 mm 3 mps 663 mmHg 85%
    16:00 +7°C° 0.1 mm 3 mps 663 mmHg 84%
    17:00 +7°C° 0 mm 3 mps 663 mmHg 87%
    18:00 +6°C° 0 mm 2 mps 663 mmHg 91%
    19:00 +5°C° 0 mm 2 mps 662 mmHg 94%
    20:00 +5°C° 0 mm 2 mps 663 mmHg 94%
    21:00 +5°C° 0 mm 2 mps 663 mmHg 95%
    22:00 +5°C° 0 mm 2 mps 663 mmHg 95%
    23:00 +5°C° 0.1 mm 2 mps 663 mmHg 95%
    Show more